This demonstration page uses our WeatherBlox Daily Observations layout. Learn more.

Left ArrowRight Arrow

41.12389, -100.76542

Hourly Observations for August 8, 2022

Temp ( °F °C ) Dew Point ( °F °C ) Humidity (%) Winds ( mph kmh ) Pressure ( in mb ) Visibility ( mi km ) Precip ( " mm )
12:53 am 00:53 Clear 58 14.4 52 11.1 81 81 NNE 6 9 30.16 1022 10 16 0.00 0.00
1:53 am 01:53 Clear 56 13.3 51 10.6 84 84 NE 5 7 30.15 1021 10 16 0.00 0.00
2:53 am 02:53 Clear 54 12.2 50 10 87 87 Calm 30.17 1022 10 16 0.00 0.00
3:53 am 03:53 Clear 52 11.1 49 9.4 89 89 N 6 9 30.18 1022 10 16 0.00 0.00
4:53 am 04:53 Clear 52 11.1 48 8.9 86 86 W 5 7 30.18 1022 10 16 0.00 0.00
5:53 am 05:53 Clear 50 10 47 8.3 89 89 NW 7 11 30.16 1021 10 16 0.00 0.00
6:53 am 06:53 Sunny 49 9.4 46 7.8 90 90 WNW 5 7 30.16 1021 10 16 0.00 0.00
7:53 am 07:53 Sunny 54 12.2 49 9.4 83 83 WNW 5 7 30.15 1021 10 16 0.00 0.00
8:53 am 08:53 Sunny 62 16.7 53 11.7 73 73 WNW 3 6 30.14 1021 10 16 0.00 0.00
9:53 am 09:53 Sunny 70 21.1 56 13.3 61 61 W 6 9 30.14 1021 10 16 0.00 0.00
10:53 am 10:53 Sunny 74 23.3 56 13.3 53 53 W 5 7 30.14 1021 10 16 0.00 0.00
11:53 am 11:53 Sunny 77 25 55 12.8 47 47 VRB 5 7 30.15 1021 10 16 0.00 0.00
12:53 pm 12:53 Sunny 80 26.7 56 13.3 44 44 Calm 30.13 1020 10 16 0.00 0.00
1:53 pm 13:53 Sunny 84 28.9 54 12.2 36 36 VRB 5 7 30.10 1019 10 16 0.00 0.00
2:53 pm 14:53 Sunny 86 30 55 12.8 35 35 ESE 6 9 30.08 1019 10 16 0.00 0.00
3:53 pm 15:53 Sunny 88 31.1 55 12.8 33 33 ESE 8 13 30.06 1018 10 16 0.00 0.00
4:53 pm 16:53 Sunny 87 30.6 58 14.4 37 37 ESE 15 24 30.04 1017 10 16 0.00 0.00
5:53 pm 17:53 Sunny 86 30 58 14.4 39 39 ESE 14 22 30.03 1017 10 16 0.00 0.00
6:53 pm 18:53 Sunny 84 28.9 59 15 43 43 ESE 14 22 30.02 1017 10 16 0.00 0.00
7:53 pm 19:53 Sunny 80 26.7 61 16.1 52 52 ESE 13 20 30.02 1017 10 16 0.00 0.00
8:53 pm 20:53 Clear 76 24.4 60 15.6 58 58 ESE 12 19 30.04 1017 10 16 0.00 0.00
9:53 pm 21:53 Clear 72 22.2 61 16.1 68 68 SE 7 11 30.05 1018 10 16 0.00 0.00
10:53 pm 22:53 Clear 70 21.1 57 13.9 63 63 SE 8 13 30.07 1018 10 16 0.00 0.00
11:53 pm 23:53 Clear 71 21.7 58 14.4 63 63 SSE 9 15 30.06 1018 10 16 0.00 0.00

Powered by AerisWeather